Temperature
11 11 11 10 10 10 9 9 9 9 9 9 9 9 9 9 9 9 9 9 9 9 10 10 10 10 11 11 11 12 12 13 13 14 15 15 16 16 16 16 16 16 16
11 11 10 10 10 9 9 9 9 9 9 8 8 8 8 8 8 9 9 9 9 9 9 9 10 10 10 11 11 11 12 12 13 13 14 15 15 15 16 16 16 16 16
11 10 10 10 9 9 9 9 9 8 8 8 8 8 8 8 8 8 8 8 9 9 9 9 9 10 10 10 10 11 11 12 12 13 14 14 14 15 15 15 15 15 15
11 10 10 9 9 9 9 9 9 8 8 8 8 8 8 8 8 8 8 8 8 8 9 9 9 9 9 10 10 10 11 11 12 12 13 13 14 14 14 14 14 14 15
10 10 10 9 9 9 9 9 8 8 8 8 8 8 8 8 8 8 8 8 8 8 8 8 9 9 9 9 9 10 10 11 11 11 12 13 13 13 13 14 13 13 13
10 10 9 9 9 9 9 8 8 8 8 8 8 8 8 8 8 7 7 7 7 7 8 8 8 8 9 9 9 9 10 10 11 11 11 12 12 13 13 13 13 13 12
10 10 9 9 9 9 8 8 8 8 8 8 8 8 8 8 8 8 7 7 7 7 7 8 8 8 8 9 9 9 9 10 10 10 11 12 12 13 13 13 13 13 13
10 9 9 9 8 8 8 8 8 8 8 8 8 8 8 8 8 7 7 7 7 7 7 7 7 8 8 8 9 9 9 10 10 10 11 11 12 12 13 13 13 13 12
10 9 9 8 8 8 8 8 8 8 8 8 8 8 8 8 8 7 7 7 7 7 7 7 7 7 8 8 8 8 9 9 10 10 10 11 11 12 12 12 12 12 12
9 9 9 8 8 8 8 8 8 8 8 8 8 8 8 8 8 7 7 7 7 7 7 7 7 7 7 8 8 8 8 9 9 10 10 10 11 11 12 12 13 12 12
9 9 9 8 8 8 8 8 8 8 8 8 8 8 8 7 7 7 7 7 7 7 6 7 7 7 7 7 8 8 8 9 9 9 10 10 10 11 11 12 12 13 12
9 9 9 8 8 8 8 8 8 8 8 8 8 8 8 7 7 7 7 7 6 6 6 6 7 7 7 7 7 8 8 8 9 9 9 10 10 10 11 11 12 12 12
9 9 9 8 8 8 8 8 8 8 8 8 8 8 8 7 7 7 7 6 6 6 6 6 7 7 7 7 7 8 8 8 8 9 9 10 10 10 10 11 11 11 11
9 9 9 8 8 8 8 8 8 8 8 8 8 7 7 7 7 7 6 6 6 6 6 6 6 7 7 7 7 8 8 8 8 9 9 9 10 10 10 10 11 11 11
9 9 9 8 8 8 8 8 8 8 8 8 7 7 7 7 7 6 6 6 6 6 6 6 6 7 7 7 7 8 8 8 8 9 9 9 9 10 10 10 10 11 11
9 9 9 8 8 8 8 8 9 8 8 8 8 7 7 7 6 6 6 6 6 6 6 6 6 7 7 7 8 8 8 8 9 9 9 9 9 10 10 10 10 10 11
9 9 9 9 8 8 8 8 8 9 8 8 8 7 7 7 6 6 6 6 6 6 6 6 7 7 7 7 8 8 8 8 9 9 9 9 9 9 9 10 10 10 10
9 9 9 9 8 8 8 8 8 8 8 8 8 7 7 7 7 6 6 6 6 6 6 6 7 7 7 7 8 8 8 8 8 9 9 9 9 9 9 10 10 10 10
9 9 9 9 9 9 9 9 8 8 8 8 8 8 7 7 7 6 6 6 6 6 7 7 7 7 7 8 8 8 8 8 9 9 9 9 9 9 9 10 10 10 10
9 9 9 9 9 9 9 9 9 8 8 8 8 8 7 7 7 7 7 7 7 7 7 7 7 7 8 8 8 8 8 9 9 9 9 9 9 9 9 10 10 10 10
9 9 9 9 9 9 9 9 9 8 8 8 8 8 7 7 7 7 7 7 7 7 7 7 8 8 8 8 8 8 9 9 9 9 9 9 9 9 9 9 10 10 10
9 9 9 9 9 9 9 9 9 9 8 8 8 8 8 8 7 7 7 7 8 8 8 8 8 8 8 8 9 9 9 9 9 9 9 9 9 9 10 9 9 9 9
9 9 9 9 9 9 9 9 9 9 9 8 8 8 8 8 8 8 8 8 8 8 8 8 8 8 8 9 9 9 9 9 9 9 9 9 9 9 9 9 9 9 9
9 9 9 9 9 9 9 9 9 9 9 9 8 8 8 8 8 8 8 8 8 8 8 8 8 8 8 9 9 9 9 9 9 9 9 9 9 9 9 9 9 9 9
9 9 8 8 9 9 9 9 9 9 9 9 9 8 8 8 8 8 8 8 8 8 8 8 8 8 8 8 9 9 9 9 9 9 9 9 9 9 9 9 9 9 9
9 8 8 8 9 9 9 9 9 9 9 9 9 9 8 8 8 8 8 8 8 8 8 8 8 8 8 8 8 8 8 9 9 9 9 9 9 9 9 9 9 9 9
Wind_Speed
5 5 5 5 6 6 6 7 7 7 7 8 8 8 8 8 8 7 7 8 8 8 8 8 8 7 5 5 4 4 4 4 5 4 2 2 3 7 6 7 8 8 7
5 5 5 6 6 7 7 8 8 8 8 8 8 8 9 9 8 8 9 9 8 9 9 9 9 7 7 5 4 5 5 5 4 4 2 2 3 8 8 8 6 7 7
5 5 5 6 7 8 8 8 8 8 8 8 8 9 10 10 10 10 10 10 10 10 9 9 10 9 8 6 6 6 5 5 4 4 4 3 3 6 8 7 7 6 7
5 5 6 7 8 8 8 8 8 8 8 9 9 9 10 10 10 11 10 10 11 10 10 10 10 9 10 9 7 7 6 5 5 5 5 4 6 6 7 8 6 4 5
5 6 7 8 8 8 8 8 8 8 9 8 9 9 9 9 10 11 10 11 10 10 10 9 10 12 14 11 8 7 7 6 5 5 5 4 6 9 8 6 7 7 4
6 7 8 8 8 8 8 8 8 9 9 9 9 10 10 10 13 15 12 9 9 10 10 9 10 11 14 15 15 13 11 9 8 6 6 7 8 8 7 9 9 8 5
7 7 8 7 8 8 9 9 9 9 9 10 10 10 11 12 16 17 18 11 10 10 10 10 11 11 11 9 11 14 13 14 12 8 7 8 8 9 10 12 11 9 5
7 8 8 8 9 9 9 9 9 9 9 9 10 10 10 13 16 16 17 12 10 11 11 11 11 10 10 9 8 8 8 9 11 9 8 8 8 9 12 11 11 8 7
7 8 8 8 9 10 10 10 10 9 10 9 9 10 10 12 14 15 14 8 9 11 11 11 11 10 13 14 10 8 8 7 9 11 9 9 9 11 11 10 12 12 8
8 8 8 8 9 10 11 11 10 9 10 10 10 9 10 10 13 14 12 6 8 8 8 9 13 13 14 15 11 9 9 8 6 7 8 8 8 11 15 14 14 14 10
8 8 8 9 9 10 10 9 10 10 10 9 9 9 8 9 11 12 10 5 6 6 6 6 8 13 15 15 13 10 11 8 7 7 7 7 7 8 10 11 11 12 11
7 8 9 10 10 11 10 10 10 9 9 9 8 8 7 7 7 8 9 8 7 6 6 6 6 10 13 14 12 11 12 9 5 6 6 7 7 8 9 10 10 8 7
7 8 9 10 10 9 9 10 10 8 7 8 7 7 6 5 5 8 7 7 8 5 4 5 6 8 8 8 11 13 11 7 6 6 7 7 7 7 7 8 8 7 7
7 9 9 10 11 10 8 8 8 8 8 8 7 6 6 5 4 4 3 3 4 3 3 3 3 4 4 5 6 8 7 7 7 6 6 6 6 7 7 7 8 9 8
8 8 9 9 9 10 9 8 9 9 9 9 7 6 5 6 5 5 3 2 2 2 2 1 1 2 3 3 4 5 5 6 6 5 5 5 6 7 7 7 8 9 8
7 8 8 8 9 9 9 11 12 11 13 12 11 8 6 7 7 5 4 4 4 3 1 1 2 3 4 5 6 5 5 6 6 6 5 5 6 7 7 7 8 10 10
7 8 8 8 9 9 9 9 11 11 11 10 9 9 9 8 7 6 5 4 3 2 1 2 2 3 4 4 5 5 5 6 6 6 6 5 6 7 7 8 9 10 9
7 9 9 8 8 9 9 9 8 8 9 7 6 6 7 7 6 5 3 2 2 2 3 4 4 4 4 4 5 5 5 5 5 5 5 6 6 7 7 8 9 10 10
7 7 7 8 8 8 8 8 7 7 6 6 5 4 4 4 4 5 3 3 3 4 4 5 5 5 4 5 5 5 5 5 6 6 6 7 7 7 7 8 8 12 10
6 11 11 8 8 8 7 7 7 6 6 6 5 4 1 1 2 3 4 4 5 5 5 5 5 5 4 4 5 5 5 5 6 6 6 6 7 8 8 9 9 10 10
5 8 13 10 7 7 7 7 6 6 6 6 5 4 3 3 4 5 4 5 5 6 5 5 5 5 5 4 4 5 6 6 6 6 7 7 8 8 8 9 9 9 9
5 6 7 8 7 7 7 6 6 6 6 6 5 4 5 4 4 4 4 4 5 5 5 4 4 4 4 5 5 6 5 6 6 6 7 7 8 8 8 9 10 10 10
5 6 7 7 7 8 8 6 5 5 5 5 5 5 4 3 3 3 3 4 4 4 3 3 3 3 2 3 4 5 6 6 6 7 8 8 8 8 9 9 11 12 12
5 6 6 7 6 6 7 6 6 5 5 6 5 5 5 4 3 4 3 3 3 3 2 2 2 3 3 2 2 2 3 4 5 6 9 9 9 8 8 10 11 12 12
4 5 5 6 6 6 6 6 6 5 5 5 5 5 5 4 4 4 3 3 2 2 2 1 0 0 2 3 3 2 2 4 4 4 6 7 9 9 10 11 10 11 11
4 4 4 5 5 6 6 6 6 6 5 5 5 5 5 5 5 4 4 3 3 2 2 1 2 3 4 4 5 5 4 3 3 5 5 6 8 9 10 9 12 12 13
Wind_Direction
271 270 277 277 274 270 267 267 266 268 269 269 271 273 275 276 273 269 266 267 260 260 258 250 250 247 246 245 241 233 225 217 244 265 242 174 140 140 130 120 121 120 132
263 266 269 272 274 273 269 266 263 264 264 261 263 264 267 270 267 265 268 271 261 258 257 252 252 252 244 235 232 234 230 220 221 252 237 180 147 152 140 131 122 114 114
267 268 277 281 280 276 271 269 266 263 265 265 261 260 262 263 262 260 258 260 257 253 249 246 247 243 246 238 229 230 228 231 218 227 233 192 156 150 136 123 119 114 110
273 277 280 279 275 272 272 272 269 265 265 264 261 257 257 258 258 258 257 255 256 255 249 242 240 234 237 235 231 226 221 220 218 222 223 193 167 154 145 142 139 126 118
284 285 280 279 280 279 278 277 275 271 271 262 262 262 259 258 260 254 251 256 253 255 253 245 240 239 238 234 229 218 212 213 213 214 215 197 178 167 164 155 152 138 105
288 286 285 289 291 287 284 283 283 278 273 270 266 263 262 268 267 261 254 250 247 248 252 249 246 249 249 243 237 225 210 205 207 210 210 205 195 178 164 158 155 154 149
293 292 294 296 295 290 292 293 287 283 277 276 272 267 264 263 262 261 259 251 242 243 244 243 251 249 241 236 239 235 225 217 206 205 211 205 193 180 169 167 170 161 146
299 298 297 297 297 295 293 289 286 281 280 278 276 272 269 271 266 261 260 254 243 241 239 235 234 237 236 225 225 226 222 219 214 210 214 211 199 184 177 169 160 133 110
299 299 298 299 300 300 297 292 288 286 285 280 276 274 272 275 272 267 262 249 243 243 241 236 228 228 230 222 214 216 221 228 225 216 208 211 204 186 170 155 155 155 152
291 292 296 298 298 298 294 291 288 285 284 284 282 277 272 276 279 274 264 244 242 245 242 238 232 226 226 217 209 206 215 218 205 204 205 205 203 188 177 174 170 168 159
284 293 299 299 298 295 292 291 292 293 291 288 286 283 279 278 284 281 269 239 234 239 237 235 233 225 222 216 205 203 210 201 193 195 195 193 190 189 185 183 179 173 168
292 299 301 301 304 310 302 300 297 294 292 291 291 290 286 285 286 285 274 250 235 232 238 229 226 225 218 211 207 207 204 193 180 183 189 195 194 193 190 185 183 180 162
303 303 303 305 305 303 300 301 303 299 292 292 288 286 290 290 293 298 284 264 248 233 236 236 229 227 209 205 208 200 190 184 177 185 193 198 195 189 182 178 171 154 130
303 304 304 307 309 309 305 298 298 298 294 291 286 283 284 288 291 301 297 284 268 245 249 245 229 222 203 192 192 192 186 181 180 190 190 190 181 177 181 177 173 163 150
303 303 306 305 305 308 306 299 295 286 277 275 277 269 273 282 279 277 272 270 259 241 224 188 177 182 186 187 187 182 182 181 186 184 177 174 178 179 180 178 169 163 163
304 307 307 309 309 307 308 310 302 292 288 277 261 254 255 256 278 281 276 278 275 248 199 194 199 193 196 192 186 187 189 190 189 182 179 177 181 180 178 173 171 169 167
295 300 305 305 307 308 308 308 312 313 306 294 281 262 246 257 269 273 276 283 277 242 218 234 230 210 206 198 192 189 192 194 186 181 179 183 180 175 174 177 178 173 171
299 302 304 299 303 304 303 303 302 306 314 316 303 277 259 253 257 261 270 288 275 239 228 233 238 230 216 206 198 195 197 190 186 187 185 187 179 173 174 179 181 176 169
302 303 303 301 301 300 301 303 303 304 305 308 310 307 271 253 254 254 238 232 244 247 239 238 239 235 225 212 206 197 190 187 185 183 187 185 179 173 176 179 178 171 166
302 308 313 305 304 306 309 310 309 310 310 309 307 296 268 226 258 249 230 234 244 251 250 244 239 235 226 214 201 193 188 188 186 186 186 183 179 176 176 174 174 173 174
300 309 314 312 305 305 308 308 307 310 311 308 303 289 254 241 256 260 250 240 240 247 251 247 236 228 222 209 199 196 192 190 189 186 184 182 178 177 175 172 172 173 171
298 298 302 304 306 309 311 307 308 314 318 318 315 310 286 265 267 273 263 254 248 244 243 243 241 226 212 203 197 191 190 192 192 184 178 176 175 173 170 169 170 170 170
300 301 305 307 308 315 320 320 319 322 323 323 321 318 309 292 287 287 284 278 272 265 256 243 242 242 226 199 192 188 190 195 192 182 176 173 171 170 169 169 170 171 173
298 300 305 311 315 320 321 324 325 328 332 335 335 331 327 318 312 308 302 295 293 292 287 256 236 225 207 169 162 172 181 180 174 176 172 170 171 171 170 170 171 173 173
302 311 316 317 321 321 324 327 328 332 338 339 338 336 333 335 333 328 322 317 311 314 320 311 274 147 127 122 113 112 127 142 151 156 162 165 169 170 171 170 170 169 168
316 330 332 329 330 328 329 332 333 336 339 338 339 338 341 345 343 339 339 346 344 344 358 19 77 93 94 91 94 100 108 124 148 160 162 161 166 170 168 170 169 171 169
Height
1497 1494 1491 1488 1485 1482 1480 1477 1474 1472 1469 1467 1464 1462 1460 1458 1457 1456 1454 1454 1453 1453 1453 1453 1454 1455 1455 1455 1456 1457 1458 1460 1460 1461 1463 1465 1468 1471 1475 1479 1482 1486 1489
1492 1489 1486 1483 1480 1477 1474 1472 1469 1467 1464 1462 1459 1457 1455 1453 1451 1450 1448 1447 1447 1446 1446 1447 1447 1449 1449 1450 1451 1451 1453 1454 1456 1457 1459 1461 1464 1468 1472 1475 1478 1481 1484
1488 1485 1482 1479 1475 1472 1469 1466 1464 1461 1458 1456 1453 1451 1449 1447 1445 1443 1442 1441 1440 1439 1439 1440 1441 1442 1443 1444 1445 1446 1447 1449 1451 1453 1455 1458 1461 1464 1468 1471 1474 1477 1480
1484 1480 1477 1473 1470 1466 1463 1460 1458 1455 1452 1449 1447 1445 1442 1440 1438 1436 1435 1433 1433 1432 1432 1433 1434 1435 1436 1438 1439 1441 1442 1444 1446 1448 1450 1453 1456 1460 1464 1467 1470 1473 1476
1479 1475 1472 1468 1465 1461 1458 1455 1452 1449 1446 1443 1440 1438 1435 1433 1430 1429 1427 1426 1425 1424 1425 1425 1426 1428 1429 1431 1433 1435 1437 1438 1440 1442 1445 1448 1451 1454 1458 1463 1467 1470 1473
1474 1471 1467 1463 1459 1456 1452 1449 1446 1442 1439 1436 1433 1430 1427 1425 1423 1421 1420 1419 1418 1417 1417 1417 1419 1420 1422 1424 1426 1428 1430 1432 1435 1437 1440 1442 1446 1449 1454 1458 1463 1466 1470
1470 1466 1462 1458 1454 1451 1447 1443 1440 1436 1433 1429 1426 1423 1420 1417 1415 1413 1411 1410 1409 1409 1408 1409 1410 1412 1414 1417 1419 1421 1423 1426 1429 1432 1434 1437 1440 1444 1449 1454 1459 1462 1466
1465 1461 1457 1453 1449 1445 1441 1437 1434 1430 1426 1423 1419 1416 1413 1410 1407 1405 1403 1401 1400 1400 1400 1400 1402 1404 1407 1410 1412 1414 1417 1419 1422 1426 1428 1432 1436 1440 1445 1449 1454 1460 1466
1461 1457 1453 1448 1444 1439 1435 1432 1428 1424 1420 1417 1413 1409 1406 1403 1400 1398 1395 1393 1392 1391 1391 1392 1394 1396 1399 1403 1405 1407 1410 1413 1416 1420 1423 1426 1430 1435 1439 1445 1450 1456 1461
1457 1452 1448 1444 1439 1434 1430 1426 1422 1418 1414 1411 1407 1404 1400 1397 1394 1391 1388 1386 1384 1384 1384 1385 1387 1389 1392 1395 1398 1401 1404 1407 1411 1414 1417 1420 1424 1428 1433 1439 1444 1450 1455
1453 1448 1444 1439 1434 1429 1425 1421 1417 1413 1409 1405 1402 1398 1395 1391 1388 1385 1382 1380 1379 1378 1378 1379 1380 1383 1386 1388 1392 1395 1398 1403 1406 1409 1412 1415 1418 1422 1427 1433 1439 1444 1449
1448 1444 1439 1435 1430 1425 1420 1416 1412 1408 1404 1400 1397 1393 1390 1387 1383 1380 1377 1375 1374 1373 1373 1374 1375 1377 1380 1382 1386 1390 1394 1398 1401 1404 1407 1409 1413 1417 1421 1428 1434 1440 1446
1444 1440 1435 1430 1426 1421 1416 1412 1407 1403 1399 1395 1391 1388 1384 1382 1379 1376 1373 1371 1370 1369 1369 1370 1371 1373 1375 1378 1381 1385 1389 1393 1396 1399 1402 1406 1409 1413 1418 1423 1430 1436 1442
1440 1436 1431 1426 1422 1417 1413 1408 1404 1399 1395 1391 1387 1383 1380 1377 1375 1372 1370 1369 1368 1367 1367 1367 1368 1369 1371 1374 1377 1381 1385 1388 1392 1396 1399 1403 1407 1410 1414 1418 1424 1430 1437
1437 1432 1428 1423 1418 1414 1409 1405 1400 1396 1392 1387 1383 1379 1376 1374 1372 1370 1368 1367 1366 1365 1365 1366 1366 1367 1368 1371 1374 1378 1382 1386 1390 1393 1396 1400 1403 1406 1410 1415 1420 1426 1432
1433 1429 1424 1420 1415 1411 1406 1401 1397 1393 1388 1383 1379 1375 1372 1371 1369 1367 1366 1365 1364 1364 1364 1364 1365 1365 1367 1369 1372 1375 1379 1382 1386 1390 1393 1396 1399 1403 1407 1411 1416 1421 1427
1430 1426 1421 1417 1413 1408 1403 1398 1392 1388 1384 1380 1376 1372 1369 1367 1366 1365 1364 1363 1363 1363 1363 1363 1364 1365 1366 1367 1370 1373 1376 1380 1384 1387 1390 1393 1397 1400 1404 1408 1413 1418 1424
1427 1423 1419 1414 1410 1406 1401 1396 1391 1386 1381 1377 1374 1370 1367 1365 1364 1363 1362 1362 1361 1361 1361 1362 1362 1363 1365 1366 1368 1371 1374 1377 1381 1384 1387 1390 1393 1397 1400 1405 1410 1414 1419
1424 1420 1416 1412 1408 1404 1399 1394 1389 1384 1380 1375 1372 1369 1366 1364 1363 1362 1361 1360 1359 1359 1360 1360 1361 1362 1363 1365 1367 1369 1372 1375 1378 1381 1384 1387 1390 1394 1397 1402 1406 1411 1416
1421 1417 1414 1410 1406 1402 1397 1392 1388 1383 1379 1375 1371 1368 1366 1364 1362 1361 1360 1359 1358 1358 1358 1358 1359 1360 1361 1362 1364 1367 1369 1372 1375 1378 1381 1384 1387 1391 1395 1399 1403 1408 1413
1417 1414 1411 1408 1404 1400 1395 1391 1386 1382 1378 1374 1371 1368 1366 1363 1362 1360 1359 1358 1357 1357 1356 1356 1357 1358 1359 1361 1363 1365 1367 1370 1372 1375 1378 1381 1385 1388 1392 1396 1401 1405 1410
1415 1412 1409 1406 1402 1398 1394 1390 1386 1382 1378 1374 1371 1368 1365 1363 1361 1359 1358 1357 1356 1356 1355 1355 1356 1357 1358 1359 1361 1363 1365 1367 1369 1372 1375 1378 1382 1385 1389 1393 1397 1402 1407
1412 1409 1406 1404 1401 1397 1393 1389 1386 1382 1378 1375 1372 1368 1365 1363 1361 1359 1357 1356 1355 1355 1354 1354 1355 1355 1356 1357 1359 1361 1362 1364 1366 1369 1372 1375 1379 1382 1386 1390 1394 1398 1403
1409 1406 1404 1402 1399 1396 1392 1389 1386 1382 1379 1376 1372 1369 1366 1363 1360 1359 1357 1355 1355 1354 1353 1353 1353 1354 1355 1356 1357 1358 1360 1362 1364 1366 1369 1372 1375 1379 1383 1387 1391 1395 1400
1406 1404 1402 1400 1397 1394 1391 1389 1386 1383 1380 1377 1373 1370 1367 1364 1361 1359 1357 1355 1354 1354 1353 1353 1353 1353 1354 1354 1355 1357 1358 1360 1362 1364 1366 1369 1372 1376 1380 1384 1388 1392 1397
1404 1401 1400 1398 1396 1393 1391 1388 1386 1383 1380 1377 1375 1372 1369 1366 1363 1360 1358 1356 1354 1353 1353 1352 1352 1352 1352 1353 1354 1355 1356 1358 1359 1361 1364 1367 1370 1373 1377 1381 1385 1389 1394